TimeCEST,TemperatureF,Dew PointF,Humidity,Sea Level PressureIn,VisibilityMPH,Wind Direction,Wind SpeedMPH,Gust SpeedMPH,PrecipitationIn,Events,Conditions,WindDirDegrees,DateUTC
12:00 AM,57.2,51.8,82,29.98,-9999.0,SSW,3.5,-,N/A,,Clear,210,2013-07-02 22:00:00
12:30 AM,57.2,51.8,82,29.98,-9999.0,SW,5.8,-,N/A,,Clear,220,2013-07-02 22:30:00
1:00 AM,59.0,51.8,77,29.95,-9999.0,SW,4.6,-,N/A,,Clear,220,2013-07-02 23:00:00
1:30 AM,59.0,53.6,82,29.95,-9999.0,Variable,2.3,-,N/A,,Clear,0,2013-07-02 23:30:00
2:00 AM,55,52,87,29.97,31,SSW,4.5,,,,Scattered Clouds,210,2013-07-03 00:00:00
2:00 AM,55.4,51.8,88,29.98,-9999.0,SW,2.3,-,N/A,,Clear,220,2013-07-03 00:00:00
2:30 AM,57.2,51.8,82,29.95,-9999.0,SW,2.3,-,N/A,,Clear,220,2013-07-03 00:30:00
3:00 AM,57.2,51.8,82,29.95,-9999.0,South,2.3,-,N/A,,Clear,190,2013-07-03 01:00:00
3:30 AM,59.0,53.6,82,29.95,-9999.0,SSE,2.3,-,N/A,,Clear,160,2013-07-03 01:30:00
4:00 AM,57.2,51.8,82,29.95,-9999.0,Variable,2.3,-,N/A,,Clear,0,2013-07-03 02:00:00
4:30 AM,57.2,53.6,88,29.95,-9999.0,SSE,3.5,-,N/A,,Clear,160,2013-07-03 02:30:00
5:00 AM,57.2,53.6,88,29.95,-9999.0,WSW,6.9,-,N/A,,Clear,250,2013-07-03 03:00:00
5:30 AM,59.0,51.8,77,29.95,-9999.0,West,2.3,-,N/A,,Clear,260,2013-07-03 03:30:00
6:00 AM,59.0,55.4,88,29.92,-9999.0,SE,3.5,-,N/A,,Clear,140,2013-07-03 04:00:00
6:10 AM,59.0,53.6,82,29.92,6.2,South,6.9,-,N/A,Rain,Light Rain,170,2013-07-03 04:10:00
6:30 AM,59.0,55.4,88,29.92,6.2,South,6.9,-,N/A,Rain,Light Rain,190,2013-07-03 04:30:00
7:00 AM,60.8,55.4,82,29.92,6.2,SE,6.9,-,N/A,,Partly Cloudy,140,2013-07-03 05:00:00
7:30 AM,62.6,57.2,82,29.92,6.2,ESE,8.1,-,N/A,,Partly Cloudy,120,2013-07-03 05:30:00
7:45 AM,62.6,57.2,82,29.92,6.2,Variable,2.3,-,N/A,Thunderstorm,Partly Cloudy,0,2013-07-03 05:45:00
8:00 AM,61,56,80,29.93,6,SSW,11.2,,,Rain-Thunderstorm,Thunderstorms and Rain,210,2013-07-03 06:00:00
8:00 AM,60.8,55.4,82,29.95,6.2,SSW,12.7,-,N/A,Rain-Thunderstorm,Light Thunderstorms and Rain,210,2013-07-03 06:00:00
8:11 AM,60.8,55.4,82,29.92,6.2,SSE,11.5,-,N/A,Rain-Thunderstorm,Light Thunderstorms and Rain,150,2013-07-03 06:11:00
8:30 AM,62.6,55.4,77,29.92,6.2,Variable,4.6,-,N/A,Thunderstorm,Thunderstorm,0,2013-07-03 06:30:00
8:33 AM,62.6,57.2,82,29.92,6.2,Variable,4.6,-,N/A,Rain-Thunderstorm,Light Thunderstorms and Rain,0,2013-07-03 06:33:00
8:39 AM,62.6,57.2,82,29.95,5.0,West,16.1,-,N/A,Rain-Thunderstorm,Thunderstorms and Rain,270,2013-07-03 06:39:00
8:49 AM,60.8,57.2,88,29.95,6.2,West,11.5,-,N/A,Rain-Thunderstorm,Light Thunderstorms and Rain,280,2013-07-03 06:49:00
9:00 AM,60.8,57.2,88,29.95,6.2,NW,5.8,-,N/A,Rain-Thunderstorm,Light Rain Showers,310,2013-07-03 07:00:00
9:30 AM,60.8,57.2,88,29.95,6.2,East,3.5,-,N/A,Rain,Rain Showers,80,2013-07-03 07:30:00
10:00 AM,60.8,59.0,94,29.95,6.2,ENE,5.8,-,N/A,Rain,Light Rain Showers,70,2013-07-03 08:00:00
10:30 AM,64.4,59.0,83,29.95,6.2,ESE,8.1,-,N/A,,Partly Cloudy,110,2013-07-03 08:30:00
11:00 AM,66.2,59.0,78,29.95,-9999.0,ESE,11.5,-,N/A,,Clear,110,2013-07-03 09:00:00
11:30 AM,66.2,57.2,73,29.95,-9999.0,ESE,12.7,-,N/A,,Clear,120,2013-07-03 09:30:00
11:34 AM,66.2,57.2,73,29.95,6.2,ESE,11.5,-,N/A,Rain,Light Rain Showers,120,2013-07-03 09:34:00
12:00 PM,69.8,59.0,68,29.92,6.2,East,8.1,-,N/A,,Partly Cloudy,100,2013-07-03 10:00:00
12:30 PM,71.6,59.0,64,29.92,6.2,East,11.5,-,N/A,,Partly Cloudy,100,2013-07-03 10:30:00
1:00 PM,71.6,57.2,60,29.92,6.2,ESE,11.5,-,N/A,,Partly Cloudy,110,2013-07-03 11:00:00
1:30 PM,71.6,57.2,60,29.92,6.2,East,9.2,-,N/A,,Partly Cloudy,80,2013-07-03 11:30:00
2:00 PM,74,59,49,29.88,19,East,8.9,,,,Partly Cloudy,90,2013-07-03 12:00:00
2:00 PM,73.4,60.8,65,29.92,6.2,East,10.4,-,N/A,,Partly Cloudy,90,2013-07-03 12:00:00
2:30 PM,73.4,59.0,61,29.92,6.2,East,9.2,-,N/A,,Partly Cloudy,90,2013-07-03 12:30:00
3:00 PM,73.4,59.0,61,29.92,6.2,East,8.1,-,N/A,,Partly Cloudy,100,2013-07-03 13:00:00
3:30 PM,71.6,59.0,64,29.92,6.2,NNE,3.5,-,N/A,,Partly Cloudy,30,2013-07-03 13:30:00
3:35 PM,71.6,59.0,64,29.92,6.2,NE,3.5,-,N/A,Rain,Light Rain Showers,40,2013-07-03 13:35:00
4:00 PM,75.2,60.8,61,29.92,6.2,North,3.5,-,N/A,,Partly Cloudy,350,2013-07-03 14:00:00
4:30 PM,75.2,59.0,57,29.92,6.2,NNE,3.5,-,N/A,,Partly Cloudy,20,2013-07-03 14:30:00
5:00 PM,77.0,59.0,54,29.92,6.2,Variable,2.3,-,N/A,,Partly Cloudy,0,2013-07-03 15:00:00
5:30 PM,77.0,59.0,54,29.92,6.2,Variable,2.3,-,N/A,,Partly Cloudy,0,2013-07-03 15:30:00
6:00 PM,75.2,59.0,57,29.92,6.2,SSE,4.6,-,N/A,,Partly Cloudy,150,2013-07-03 16:00:00
6:30 PM,73.4,62.6,69,29.92,6.2,South,4.6,-,N/A,Thunderstorm,Partly Cloudy,180,2013-07-03 16:30:00
6:37 PM,71.6,62.6,73,29.92,6.2,SSE,11.5,-,N/A,Thunderstorm,Partly Cloudy,160,2013-07-03 16:37:00
7:00 PM,69.8,60.8,73,29.92,6.2,SSE,11.5,-,N/A,,Partly Cloudy,150,2013-07-03 17:00:00
7:30 PM,69.8,60.8,73,29.92,-9999.0,SSW,3.5,-,N/A,,Clear,200,2013-07-03 17:30:00
8:00 PM,68,62,75,29.89,25,South,2.2,,,,Partly Cloudy,170,2013-07-03 18:00:00
8:00 PM,68.0,62.6,83,29.92,-9999.0,SSE,3.5,-,N/A,,Clear,160,2013-07-03 18:00:00
8:30 PM,68.0,62.6,83,29.95,-9999.0,SSW,4.6,-,N/A,,Clear,210,2013-07-03 18:30:00
9:00 PM,68.0,60.8,78,29.95,-9999.0,SSW,5.8,-,N/A,,Clear,200,2013-07-03 19:00:00
9:30 PM,66.2,59.0,78,29.98,-9999.0,WSW,6.9,-,N/A,,Clear,250,2013-07-03 19:30:00
10:00 PM,64.4,59.0,83,29.98,-9999.0,West,9.2,-,N/A,,Clear,260,2013-07-03 20:00:00
10:06 PM,64.4,59.0,83,29.98,6.2,West,11.5,-,N/A,Rain,Light Rain Showers,270,2013-07-03 20:06:00
10:30 PM,64.4,59.0,83,29.98,6.2,WSW,9.2,-,N/A,Rain,Light Rain Showers,250,2013-07-03 20:30:00
10:35 PM,64.4,59.0,83,29.98,5.0,WSW,5.8,-,N/A,Rain,Rain Showers,240,2013-07-03 20:35:00
11:00 PM,64.4,59.0,83,29.98,5.0,NW,9.2,-,N/A,Rain,Rain Showers,310,2013-07-03 21:00:00
11:06 PM,64.4,59.0,83,29.98,6.2,NW,4.6,-,N/A,Rain,Light Rain Showers,320,2013-07-03 21:06:00
11:30 PM,62.6,60.8,94,30.01,6.2,South,3.5,-,N/A,Rain,Light Rain Showers,190,2013-07-03 21:30:00
11:39 PM,62.6,60.8,94,30.01,5.0,South,8.1,-,N/A,Rain,Rain Showers,190,2013-07-03 21:39:00